Showing default

SKYBEE-A02, 64544

Orbit data source: Space-Track

SKYBEE-A02, 64544 is a payload satellite owned by ConstellR (DE) in SSO that was launched on Mon, 23 Jun 2025 UTC via an FALCON 9 launch vehicle from the Air Force Western Test Range (AFWTR). Payload-class satellites include a variety of spacecraft equipped with specific instruments for various scientific and technological missions. These include communications satellites like Starlink; space stations such as the ISS; scientific satellites like the Hubble; Earth observation satellites from companies like Planet Labs, Umbra, and HawkEye 360; GPS; miniature CubeSats for education and research; and military/defense satellites.

Loading next visibility...
Identifier
64544, 2025-135S
Orbit
SSO
Country
Flag of DEDE / GER
Related business
Manufacturer
NanoAvionics
Mission
Operational Commercial Imaging
Bus & Motor
CUBESAT 16U MP16, Unknown motor
Mass
110 kg wet, 110 kg dry
Launch date (UTC)
2025-06-23 (11 months ago)
Launch vehicle
FALCON 9
Launch site
Air Force Western Test Range (AFWTR)
Object type
Payload
Rocket body
Debris
Shape & HBR
Box + 2 Pan, 1.3 m
Radar Cross Section
0.146 m², Medium (>0.1 m² and < 1m²)

Expand to show TLE details & history
Last TLE update: 2 days ago

TLE from 2 days ago
0 SKYBEE-A02
1 64544U 25135S   26155.23297169  .00003451  00000-0  16332-3 0  9998
2 64544  97.4724 270.1882 0002125 149.5003 210.6356 15.20029108 52860
Epoch: 2026-06-04T05:35Z
TLE epoch observation values (Epoch: 2026-06-04T05:35:28.754Z)
Latitude
0.00002°
Longitude
-66.36179°
Altitude
510.1 km
Speed
7.608 km/s
True Right ascension
18h 00m 45s
True Declination
0° 00' 00"
Sunlit
Object was in full shadow at epoch
Visualization orbit readout
Latitude
Unknown
Longitude
Unknown
Altitude
Unknown
Speed
Unknown
Apparent Right ascension
Unknown
Apparent Declination
Unknown
Sunlit
N/A
Visualization observer readout
Local Sidereal Time
03:20:47
Azimuth
Unknown
Elevation
Unknown
Doppler factor
Unknown
Orbital elements
Apogee altitude
504.184 km
Perigee altitude
501.259 km
Semi-major axis
6,880.858 km
Eccentricity
0.00021
Inclination
97.4724°
RAAN
270.1882°
Arg. of periapsis
149.5003°
True anomaly
210.62319°
Mean anomaly
210.6356°
Eccentric anomaly
210.6294°
Mean motion
3.80259 °/min
Orbital period
94.67 mins
BSTAR
0.00016332
Loading maneuver chart data...
Computing Atmospheric mass density...
Loading historical data...
Loading historical data...
Loading historical data...
Loading historical data...
Loading historical data...
Loading historical data...
Loading historical data...

Documentation

Showing up to 5 results
|